Time,TemperatureF,DewpointF,PressureIn,WindDirection,WindDirectionDegrees,WindSpeedMPH,WindSpeedGustMPH,Humidity,HourlyPrecipIn,Conditions,Clouds,dailyrainin,SoftwareType,DateUTC
2013-02-11 00:06:00,48.6,32.2,29.82,West,260,3.0,7.0,53,0.00,,,0.00,Wunderground v.1.15,2013-02-11 06:06:00,
2013-02-11 00:11:00,48.3,32.4,29.83,WSW,245,3.0,3.0,54,0.00,,,0.00,Wunderground v.1.15,2013-02-11 06:11:00,
2013-02-11 00:16:00,47.7,31.9,29.83,SSW,206,3.0,3.0,54,0.00,,,0.00,Wunderground v.1.15,2013-02-11 06:16:00,
2013-02-11 00:21:00,47.2,30.9,29.84,WSW,250,3.0,3.0,53,0.00,,,0.00,Wunderground v.1.15,2013-02-11 06:21:00,
2013-02-11 00:31:00,46.3,30.5,29.84,ESE,105,3.0,3.0,54,0.00,,,0.00,Wunderground v.1.15,2013-02-11 06:31:00,
2013-02-11 00:36:00,45.9,31.1,29.84,WNW,288,3.0,3.0,56,0.00,,,0.00,Wunderground v.1.15,2013-02-11 06:36:00,
2013-02-11 00:41:00,45.4,30.6,29.85,WSW,255,2.0,2.0,56,0.00,,,0.00,Wunderground v.1.15,2013-02-11 06:41:00,
2013-02-11 00:46:00,45.0,30.2,29.85,South,189,2.0,4.0,56,0.00,,,0.00,Wunderground v.1.15,2013-02-11 06:46:00,
2013-02-11 00:51:00,44.8,30.5,29.86,WNW,302,3.0,3.0,57,0.00,,,0.00,Wunderground v.1.15,2013-02-11 06:51:00,
2013-02-11 00:56:00,44.5,29.8,29.86,WNW,293,3.0,3.0,56,0.00,,,0.00,Wunderground v.1.15,2013-02-11 06:56:00,
2013-02-11 01:01:00,44.3,30.0,29.86,WSW,250,4.0,4.0,57,0.00,,,0.00,Wunderground v.1.15,2013-02-11 07:01:00,
2013-02-11 01:06:00,44.0,29.7,29.86,WNW,291,3.0,4.0,57,0.00,,,0.00,Wunderground v.1.15,2013-02-11 07:06:00,
2013-02-11 01:11:00,43.8,29.5,29.87,NW,315,3.0,3.0,57,0.00,,,0.00,Wunderground v.1.15,2013-02-11 07:11:00,
2013-02-11 01:16:00,43.6,29.4,29.87,WNW,285,3.0,3.0,57,0.00,,,0.00,Wunderground v.1.15,2013-02-11 07:16:00,
2013-02-11 01:21:00,43.5,29.7,29.88,WNW,293,3.0,3.0,58,0.00,,,0.00,Wunderground v.1.15,2013-02-11 07:21:00,
2013-02-11 01:26:00,43.3,29.5,29.88,NNW,327,2.0,6.0,58,0.00,,,0.00,Wunderground v.1.15,2013-02-11 07:26:00,
2013-02-11 01:31:00,43.3,29.5,29.88,NNW,335,3.0,3.0,58,0.00,,,0.00,Wunderground v.1.15,2013-02-11 07:31:00,
2013-02-11 01:36:00,43.1,29.7,29.89,WSW,242,3.0,3.0,59,0.00,,,0.00,Wunderground v.1.15,2013-02-11 07:36:00,
2013-02-11 01:41:00,42.9,29.5,29.89,NNW,332,2.0,2.0,59,0.00,,,0.00,Wunderground v.1.15,2013-02-11 07:41:00,
2013-02-11 01:46:00,42.6,29.7,29.89,West,276,1.0,2.0,60,0.00,,,0.00,Wunderground v.1.15,2013-02-11 07:46:00,
2013-02-11 01:51:00,42.5,29.6,29.90,NW,304,2.0,2.0,60,0.00,,,0.00,Wunderground v.1.15,2013-02-11 07:51:00,
2013-02-11 02:01:00,42.2,29.3,29.90,NW,315,3.0,3.0,60,0.00,,,0.00,Wunderground v.1.15,2013-02-11 08:01:00,
2013-02-11 02:06:00,42.1,28.8,29.90,NW,307,3.0,3.0,59,0.00,,,0.00,Wunderground v.1.15,2013-02-11 08:06:00,
2013-02-11 02:11:00,41.9,28.6,29.90,WNW,284,3.0,4.0,59,0.00,,,0.00,Wunderground v.1.15,2013-02-11 08:11:00,
2013-02-11 02:16:00,41.7,28.8,29.91,SW,235,3.0,4.0,60,0.00,,,0.00,Wunderground v.1.15,2013-02-11 08:16:00,
2013-02-11 02:21:00,41.4,28.5,29.91,West,264,2.0,2.0,60,0.00,,,0.00,Wunderground v.1.15,2013-02-11 08:21:00,
2013-02-11 02:26:00,41.3,28.9,29.91,ENE,57,2.0,4.0,61,0.00,,,0.00,Wunderground v.1.15,2013-02-11 08:26:00,
2013-02-11 02:31:00,41.2,28.8,29.92,West,281,2.0,4.0,61,0.00,,,0.00,Wunderground v.1.15,2013-02-11 08:31:00,
2013-02-11 02:36:00,41.1,28.7,29.92,NW,314,2.0,4.0,61,0.00,,,0.00,Wunderground v.1.15,2013-02-11 08:36:00,
2013-02-11 02:41:00,40.9,28.9,29.92,SE,139,2.0,2.0,62,0.00,,,0.00,Wunderground v.1.15,2013-02-11 08:41:00,
2013-02-11 02:51:00,40.8,28.4,29.93,West,267,3.0,4.0,61,0.00,,,0.00,Wunderground v.1.15,2013-02-11 08:51:00,
2013-02-11 02:56:00,40.8,27.6,29.93,WNW,293,4.0,4.0,59,0.00,,,0.00,Wunderground v.1.15,2013-02-11 08:56:00,
2013-02-11 03:01:00,40.6,27.4,29.93,West,281,3.0,3.0,59,0.00,,,0.00,Wunderground v.1.15,2013-02-11 09:01:00,
2013-02-11 03:06:00,40.4,26.8,29.93,SW,231,3.0,4.0,58,0.00,,,0.00,Wunderground v.1.15,2013-02-11 09:06:00,
2013-02-11 03:11:00,40.4,26.8,29.93,WNW,290,3.0,4.0,58,0.00,,,0.00,Wunderground v.1.15,2013-02-11 09:11:00,
2013-02-11 03:16:00,40.2,26.2,29.94,NW,316,4.0,5.0,57,0.00,,,0.00,Wunderground v.1.15,2013-02-11 09:16:00,
2013-02-11 03:21:00,40.1,26.1,29.94,ESE,116,4.0,4.0,57,0.00,,,0.00,Wunderground v.1.15,2013-02-11 09:21:00,
2013-02-11 03:26:00,40.0,25.6,29.94,East,95,4.0,7.0,56,0.00,,,0.00,Wunderground v.1.15,2013-02-11 09:26:00,
2013-02-11 03:31:00,39.9,25.9,29.94,NW,315,4.0,4.0,57,0.00,,,0.00,Wunderground v.1.15,2013-02-11 09:31:00,
2013-02-11 03:36:00,39.8,25.8,29.94,NNW,330,3.0,4.0,57,0.00,,,0.00,Wunderground v.1.15,2013-02-11 09:36:00,
2013-02-11 03:41:00,39.6,25.6,29.94,NW,320,3.0,3.0,57,0.00,,,0.00,Wunderground v.1.15,2013-02-11 09:41:00,
2013-02-11 03:46:00,39.5,25.5,29.94,West,267,3.0,3.0,57,0.00,,,0.00,Wunderground v.1.15,2013-02-11 09:46:00,
2013-02-11 03:51:00,39.5,25.5,29.94,SW,215,4.0,4.0,57,0.00,,,0.00,Wunderground v.1.15,2013-02-11 09:51:00,
2013-02-11 03:56:00,39.4,25.8,29.94,SSE,167,4.0,4.0,58,0.00,,,0.00,Wunderground v.1.15,2013-02-11 09:56:00,
2013-02-11 04:01:00,39.2,25.6,29.94,WSW,249,3.0,3.0,58,0.00,,,0.00,Wunderground v.1.15,2013-02-11 10:01:00,
2013-02-11 04:06:00,39.1,25.6,29.94,WNW,286,2.0,3.0,58,0.00,,,0.00,Wunderground v.1.15,2013-02-11 10:06:00,
2013-02-11 04:11:00,38.9,25.8,29.94,NNW,328,2.0,2.0,59,0.00,,,0.00,Wunderground v.1.15,2013-02-11 10:11:00,
2013-02-11 04:16:00,38.8,26.1,29.95,SW,233,2.0,3.0,60,0.00,,,0.00,Wunderground v.1.15,2013-02-11 10:16:00,
2013-02-11 04:21:00,38.6,25.9,29.95,NW,315,1.0,2.0,60,0.00,,,0.00,Wunderground v.1.15,2013-02-11 10:21:00,
2013-02-11 04:26:00,38.7,26.0,29.95,NW,311,1.0,2.0,60,0.00,,,0.00,Wunderground v.1.15,2013-02-11 10:26:00,
2013-02-11 04:31:00,38.5,25.8,29.95,West,278,2.0,2.0,60,0.00,,,0.00,Wunderground v.1.15,2013-02-11 10:31:00,
2013-02-11 04:36:00,38.5,25.8,29.95,NW,313,2.0,2.0,60,0.00,,,0.00,Wunderground v.1.15,2013-02-11 10:36:00,
2013-02-11 04:41:00,38.3,26.0,29.95,West,259,1.0,2.0,61,0.00,,,0.00,Wunderground v.1.15,2013-02-11 10:41:00,
2013-02-11 04:46:00,38.3,26.0,29.95,NW,314,1.0,2.0,61,0.00,,,0.00,Wunderground v.1.15,2013-02-11 10:46:00,
2013-02-11 04:51:00,38.4,26.1,29.95,WSW,240,2.0,4.0,61,0.00,,,0.00,Wunderground v.1.15,2013-02-11 10:51:00,
2013-02-11 04:56:00,38.4,26.1,29.95,West,259,2.0,4.0,61,0.00,,,0.00,Wunderground v.1.15,2013-02-11 10:56:00,
2013-02-11 05:01:00,38.4,26.1,29.96,West,278,3.0,3.0,61,0.00,,,0.00,Wunderground v.1.15,2013-02-11 11:01:00,
2013-02-11 05:11:00,38.5,26.2,29.96,West,259,2.0,2.0,61,0.00,,,0.00,Wunderground v.1.15,2013-02-11 11:11:00,
2013-02-11 05:16:00,38.5,26.2,29.96,NW,319,2.0,2.0,61,0.00,,,0.00,Wunderground v.1.15,2013-02-11 11:16:00,
2013-02-11 05:21:00,38.4,26.5,29.96,West,272,2.0,2.0,62,0.00,,,0.00,Wunderground v.1.15,2013-02-11 11:21:00,
2013-02-11 05:26:00,38.4,26.5,29.97,NW,324,2.0,2.0,62,0.00,,,0.00,Wunderground v.1.15,2013-02-11 11:26:00,
2013-02-11 05:31:00,38.5,26.6,29.97,WNW,293,3.0,3.0,62,0.00,,,0.00,Wunderground v.1.15,2013-02-11 11:31:00,
2013-02-11 05:36:00,38.5,26.6,29.97,WSW,238,2.0,3.0,62,0.00,,,0.00,Wunderground v.1.15,2013-02-11 11:36:00,
2013-02-11 05:41:00,38.5,26.6,29.98,SW,235,2.0,2.0,62,0.00,,,0.00,Wunderground v.1.15,2013-02-11 11:41:00,
2013-02-11 05:46:00,38.4,26.5,29.98,West,259,2.0,2.0,62,0.00,,,0.00,Wunderground v.1.15,2013-02-11 11:46:00,
2013-02-11 05:56:00,38.3,26.8,29.98,West,281,1.0,2.0,63,0.00,,,0.00,Wunderground v.1.15,2013-02-11 11:56:00,
2013-02-11 06:01:00,38.2,26.7,29.98,WNW,301,2.0,2.0,63,0.00,,,0.00,Wunderground v.1.15,2013-02-11 12:01:00,
2013-02-11 06:06:00,38.2,27.1,29.99,WNW,288,2.0,2.0,64,0.00,,,0.00,Wunderground v.1.15,2013-02-11 12:06:00,
2013-02-11 06:11:00,38.2,27.1,29.98,West,265,2.0,2.0,64,0.00,,,0.00,Wunderground v.1.15,2013-02-11 12:11:00,
2013-02-11 06:16:00,38.1,27.0,29.99,West,278,2.0,2.0,64,0.00,,,0.00,Wunderground v.1.15,2013-02-11 12:16:00,
2013-02-11 06:21:00,38.0,26.9,29.99,South,170,2.0,2.0,64,0.00,,,0.00,Wunderground v.1.15,2013-02-11 12:21:00,
2013-02-11 06:26:00,37.9,26.8,29.99,WNW,290,2.0,2.0,64,0.00,,,0.00,Wunderground v.1.15,2013-02-11 12:26:00,
2013-02-11 06:31:00,37.9,27.2,29.99,SSW,197,1.0,1.0,65,0.00,,,0.00,Wunderground v.1.15,2013-02-11 12:31:00,
2013-02-11 06:36:00,37.9,27.2,30.00,WSW,256,1.0,1.0,65,0.00,,,0.00,Wunderground v.1.15,2013-02-11 12:36:00,
2013-02-11 06:46:00,37.8,27.1,30.00,WNW,284,2.0,3.0,65,0.00,,,0.00,Wunderground v.1.15,2013-02-11 12:46:00,
2013-02-11 06:51:00,37.7,27.0,30.01,West,269,2.0,2.0,65,0.00,,,0.00,Wunderground v.1.15,2013-02-11 12:51:00,
2013-02-11 06:56:00,37.7,27.0,30.01,NW,316,1.0,2.0,65,0.00,,,0.00,Wunderground v.1.15,2013-02-11 12:56:00,
2013-02-11 07:01:00,37.6,27.3,30.01,WNW,288,1.0,1.0,66,0.00,,,0.00,Wunderground v.1.15,2013-02-11 13:01:00,
2013-02-11 07:06:00,37.4,27.1,30.02,WNW,287,1.0,1.0,66,0.00,,,0.00,Wunderground v.1.15,2013-02-11 13:06:00,
2013-02-11 07:11:00,37.4,27.1,30.02,WNW,290,1.0,1.0,66,0.00,,,0.00,Wunderground v.1.15,2013-02-11 13:11:00,
2013-02-11 07:16:00,37.4,27.1,30.03,SW,236,1.0,1.0,66,0.00,,,0.00,Wunderground v.1.15,2013-02-11 13:16:00,
2013-02-11 07:21:00,37.5,27.5,30.03,WNW,288,2.0,2.0,67,0.00,,,0.00,Wunderground v.1.15,2013-02-11 13:21:00,
2013-02-11 07:26:00,37.7,27.7,30.04,West,275,1.0,2.0,67,0.00,,,0.00,Wunderground v.1.15,2013-02-11 13:26:00,
2013-02-11 07:31:00,37.8,27.5,30.04,SW,235,1.0,1.0,66,0.00,,,0.00,Wunderground v.1.15,2013-02-11 13:31:00,
2013-02-11 07:41:00,38.0,28.0,30.05,NW,306,1.0,2.0,67,0.00,,,0.00,Wunderground v.1.15,2013-02-11 13:41:00,
2013-02-11 07:46:00,38.2,27.8,30.05,West,272,2.0,2.0,66,0.00,,,0.00,Wunderground v.1.15,2013-02-11 13:46:00,
2013-02-11 07:51:00,38.4,28.0,30.05,NW,304,2.0,3.0,66,0.00,,,0.00,Wunderground v.1.15,2013-02-11 13:51:00,
2013-02-11 07:56:00,38.5,28.1,30.05,NNW,330,1.0,3.0,66,0.00,,,0.00,Wunderground v.1.15,2013-02-11 13:56:00,
2013-02-11 08:01:00,38.7,28.3,30.05,West,280,1.0,3.0,66,0.00,,,0.00,Wunderground v.1.15,2013-02-11 14:01:00,
2013-02-11 08:06:00,38.8,28.0,30.05,West,260,1.0,3.0,65,0.00,,,0.00,Wunderground v.1.15,2013-02-11 14:06:00,
2013-02-11 08:11:00,38.9,28.1,30.05,WNW,297,2.0,2.0,65,0.00,,,0.00,Wunderground v.1.15,2013-02-11 14:11:00,
2013-02-11 08:16:00,39.1,28.3,30.05,NW,309,2.0,8.0,65,0.00,,,0.00,Wunderground v.1.15,2013-02-11 14:16:00,
2013-02-11 08:21:00,39.3,28.5,30.05,WNW,297,2.0,2.0,65,0.00,,,0.00,Wunderground v.1.15,2013-02-11 14:21:00,
2013-02-11 08:26:00,39.6,28.4,30.05,WNW,297,2.0,2.0,64,0.00,,,0.00,Wunderground v.1.15,2013-02-11 14:26:00,
2013-02-11 08:31:00,39.8,28.6,30.05,WSW,253,2.0,4.0,64,0.00,,,0.00,Wunderground v.1.15,2013-02-11 14:31:00,
2013-02-11 08:36:00,40.0,28.4,30.06,West,274,2.0,4.0,63,0.00,,,0.00,Wunderground v.1.15,2013-02-11 14:36:00,
2013-02-11 08:46:00,40.3,28.7,30.06,West,269,2.0,2.0,63,0.00,,,0.00,Wunderground v.1.15,2013-02-11 14:46:00,
2013-02-11 08:51:00,40.5,28.1,30.06,WSW,253,3.0,3.0,61,0.00,,,0.00,Wunderground v.1.15,2013-02-11 14:51:00,
2013-02-11 08:56:00,40.7,28.3,30.06,NNW,345,3.0,3.0,61,0.00,,,0.00,Wunderground v.1.15,2013-02-11 14:56:00,
2013-02-11 09:01:00,40.8,28.0,30.06,WNW,301,3.0,3.0,60,0.00,,,0.00,Wunderground v.1.15,2013-02-11 15:01:00,
2013-02-11 09:06:00,41.0,27.8,30.06,West,281,3.0,3.0,59,0.00,,,0.00,Wunderground v.1.15,2013-02-11 15:06:00,
2013-02-11 09:11:00,41.1,28.3,30.06,West,279,3.0,5.0,60,0.00,,,0.00,Wunderground v.1.15,2013-02-11 15:11:00,
2013-02-11 09:16:00,41.3,27.6,30.06,West,274,3.0,5.0,58,0.00,,,0.00,Wunderground v.1.15,2013-02-11 15:16:00,
2013-02-11 09:26:00,41.9,28.2,30.07,West,271,4.0,9.0,58,0.00,,,0.00,Wunderground v.1.15,2013-02-11 15:26:00,
2013-02-11 09:31:00,42.0,27.9,30.07,WSW,253,3.0,6.0,57,0.00,,,0.00,Wunderground v.1.15,2013-02-11 15:31:00,
2013-02-11 09:36:00,42.0,27.9,30.07,NW,312,3.0,6.0,57,0.00,,,0.00,Wunderground v.1.15,2013-02-11 15:36:00,
2013-02-11 09:41:00,42.1,28.8,30.07,West,273,3.0,3.0,59,0.00,,,0.00,Wunderground v.1.15,2013-02-11 15:41:00,
2013-02-11 09:46:00,42.5,28.8,30.07,WSW,250,2.0,10.0,58,0.00,,,0.00,Wunderground v.1.15,2013-02-11 15:46:00,
2013-02-11 09:51:00,42.5,28.3,30.08,NW,325,3.0,3.0,57,0.00,,,0.00,Wunderground v.1.15,2013-02-11 15:51:00,
2013-02-11 09:56:00,42.9,28.7,30.08,WSW,253,4.0,4.0,57,0.00,,,0.00,Wunderground v.1.15,2013-02-11 15:56:00,
2013-02-11 10:01:00,43.0,28.4,30.08,West,259,3.0,3.0,56,0.00,,,0.00,Wunderground v.1.15,2013-02-11 16:01:00,
2013-02-11 10:06:00,43.3,28.6,30.08,NW,315,3.0,3.0,56,0.00,,,0.00,Wunderground v.1.15,2013-02-11 16:06:00,
2013-02-11 10:11:00,43.7,28.6,30.08,WNW,299,2.0,2.0,55,0.00,,,0.00,Wunderground v.1.15,2013-02-11 16:11:00,
2013-02-11 10:16:00,44.0,28.9,30.08,West,262,2.0,5.0,55,0.00,,,0.00,Wunderground v.1.15,2013-02-11 16:16:00,
2013-02-11 10:21:00,44.1,28.5,30.08,NW,314,3.0,3.0,54,0.00,,,0.00,Wunderground v.1.15,2013-02-11 16:21:00,
2013-02-11 10:31:00,44.2,28.6,30.09,NW,304,3.0,5.0,54,0.00,,,0.00,Wunderground v.1.15,2013-02-11 16:31:00,
2013-02-11 10:36:00,44.4,28.3,30.09,WNW,288,3.0,5.0,53,0.00,,,0.00,Wunderground v.1.15,2013-02-11 16:36:00,
2013-02-11 10:46:00,44.8,28.2,30.09,WSW,238,3.0,3.0,52,0.00,,,0.00,Wunderground v.1.15,2013-02-11 16:46:00,
2013-02-11 10:51:00,45.1,29.0,30.09,West,271,3.0,3.0,53,0.00,,,0.00,Wunderground v.1.15,2013-02-11 16:51:00,
2013-02-11 10:56:00,45.5,29.3,30.10,NNW,340,2.0,3.0,53,0.00,,,0.00,Wunderground v.1.15,2013-02-11 16:56:00,
2013-02-11 11:01:00,45.9,29.7,30.10,WSW,240,2.0,3.0,53,0.00,,,0.00,Wunderground v.1.15,2013-02-11 17:01:00,
2013-02-11 11:06:00,46.0,28.4,30.10,WSW,256,2.0,3.0,50,0.00,,,0.00,Wunderground v.1.15,2013-02-11 17:06:00,
2013-02-11 11:11:00,46.0,28.9,30.10,West,263,3.0,4.0,51,0.00,,,0.00,Wunderground v.1.15,2013-02-11 17:11:00,
2013-02-11 11:21:00,46.2,28.6,30.10,WNW,290,3.0,3.0,50,0.00,,,0.00,Wunderground v.1.15,2013-02-11 17:21:00,
2013-02-11 11:31:00,46.3,28.2,30.10,WSW,257,3.0,3.0,49,0.00,,,0.00,Wunderground v.1.15,2013-02-11 17:31:00,
2013-02-11 11:41:00,46.3,28.7,30.10,North,353,3.0,3.0,50,0.00,,,0.00,Wunderground v.1.15,2013-02-11 17:41:00,
2013-02-11 11:46:00,46.5,28.3,30.10,East,92,3.0,3.0,49,0.00,,,0.00,Wunderground v.1.15,2013-02-11 17:46:00,
2013-02-11 11:51:00,46.7,29.0,30.10,NW,305,3.0,3.0,50,0.00,,,0.00,Wunderground v.1.15,2013-02-11 17:51:00,
2013-02-11 11:56:00,46.9,28.7,30.10,WNW,285,2.0,3.0,49,0.00,,,0.00,Wunderground v.1.15,2013-02-11 17:56:00,
2013-02-11 12:01:00,47.2,28.0,30.10,North,11,2.0,2.0,47,0.00,,,0.00,Wunderground v.1.15,2013-02-11 18:01:00,
2013-02-11 12:06:00,47.4,28.7,30.09,West,269,2.0,2.0,48,0.00,,,0.00,Wunderground v.1.15,2013-02-11 18:06:00,
2013-02-11 12:11:00,47.5,28.8,30.10,NNW,327,3.0,3.0,48,0.00,,,0.00,Wunderground v.1.15,2013-02-11 18:11:00,
2013-02-11 12:16:00,47.2,28.0,30.09,WNW,295,3.0,6.0,47,0.00,,,0.00,Wunderground v.1.15,2013-02-11 18:16:00,
2013-02-11 12:26:00,47.6,27.3,30.09,WSW,253,3.0,4.0,45,0.00,,,0.00,Wunderground v.1.15,2013-02-11 18:26:00,
2013-02-11 12:31:00,47.5,26.6,30.09,NW,311,3.0,3.0,44,0.00,,,0.00,Wunderground v.1.15,2013-02-11 18:31:00,
2013-02-11 12:36:00,47.9,28.1,30.09,WSW,257,3.0,4.0,46,0.00,,,0.00,Wunderground v.1.15,2013-02-11 18:36:00,
2013-02-11 12:41:00,48.5,28.1,30.10,NW,326,2.0,6.0,45,0.00,,,0.00,Wunderground v.1.15,2013-02-11 18:41:00,
2013-02-11 12:46:00,48.1,27.7,30.09,WNW,284,3.0,6.0,45,0.00,,,0.00,Wunderground v.1.15,2013-02-11 18:46:00,
2013-02-11 12:51:00,48.3,27.4,30.09,WSW,252,3.0,4.0,44,0.00,,,0.00,Wunderground v.1.15,2013-02-11 18:51:00,
2013-02-11 12:56:00,48.6,26.5,30.10,WNW,295,2.0,4.0,42,0.00,,,0.00,Wunderground v.1.15,2013-02-11 18:56:00,
2013-02-11 13:01:00,48.9,27.4,30.10,WNW,288,3.0,3.0,43,0.00,,,0.00,Wunderground v.1.15,2013-02-11 19:01:00,
2013-02-11 13:06:00,48.8,27.3,30.10,WSW,252,3.0,5.0,43,0.00,,,0.00,Wunderground v.1.15,2013-02-11 19:06:00,
2013-02-11 13:11:00,49.5,29.0,30.10,NNW,328,2.0,2.0,45,0.00,,,0.00,Wunderground v.1.15,2013-02-11 19:11:00,
2013-02-11 13:16:00,49.9,27.7,30.10,West,270,2.0,7.0,42,0.00,,,0.00,Wunderground v.1.15,2013-02-11 19:16:00,
2013-02-11 13:21:00,50.0,27.2,30.10,West,267,2.0,2.0,41,0.00,,,0.00,Wunderground v.1.15,2013-02-11 19:21:00,
2013-02-11 13:26:00,49.9,27.7,30.10,NW,316,2.0,4.0,42,0.00,,,0.00,Wunderground v.1.15,2013-02-11 19:26:00,
2013-02-11 13:36:00,50.2,27.4,30.09,NNE,23,2.0,2.0,41,0.00,,,0.00,Wunderground v.1.15,2013-02-11 19:36:00,
2013-02-11 13:46:00,50.9,26.8,30.09,WSW,246,2.0,2.0,39,0.00,,,0.00,Wunderground v.1.15,2013-02-11 19:46:00,
2013-02-11 13:51:00,50.7,27.2,30.09,North,8,2.0,2.0,40,0.00,,,0.00,Wunderground v.1.15,2013-02-11 19:51:00,
2013-02-11 13:56:00,50.3,26.9,30.09,SW,225,3.0,3.0,40,0.00,,,0.00,Wunderground v.1.15,2013-02-11 19:56:00,
2013-02-11 14:01:00,50.6,27.1,30.09,North,353,3.0,3.0,40,0.00,,,0.00,Wunderground v.1.15,2013-02-11 20:01:00,
2013-02-11 14:06:00,50.8,27.3,30.09,NNW,330,2.0,3.0,40,0.00,,,0.00,Wunderground v.1.15,2013-02-11 20:06:00,
2013-02-11 14:11:00,50.7,26.6,30.09,West,259,3.0,3.0,39,0.00,,,0.00,Wunderground v.1.15,2013-02-11 20:11:00,
2013-02-11 14:16:00,50.9,26.8,30.09,WNW,284,3.0,3.0,39,0.00,,,0.00,Wunderground v.1.15,2013-02-11 20:16:00,
2013-02-11 14:21:00,51.1,28.8,30.09,NNW,346,3.0,3.0,42,0.00,,,0.00,Wunderground v.1.15,2013-02-11 20:21:00,
2013-02-11 14:31:00,52.0,27.8,30.09,WNW,297,1.0,1.0,39,0.00,,,0.00,Wunderground v.1.15,2013-02-11 20:31:00,
2013-02-11 14:36:00,51.8,27.6,30.09,SE,139,2.0,3.0,39,0.00,,,0.00,Wunderground v.1.15,2013-02-11 20:36:00,
2013-02-11 14:41:00,51.8,27.6,30.09,West,274,2.0,3.0,39,0.00,,,0.00,Wunderground v.1.15,2013-02-11 20:41:00,
2013-02-11 14:46:00,51.3,26.5,30.09,SSE,165,2.0,3.0,38,0.00,,,0.00,Wunderground v.1.15,2013-02-11 20:46:00,
2013-02-11 14:51:00,51.4,27.2,30.09,WNW,298,2.0,2.0,39,0.00,,,0.00,Wunderground v.1.15,2013-02-11 20:51:00,
2013-02-11 14:56:00,51.8,27.6,30.10,NW,322,2.0,2.0,39,0.00,,,0.00,Wunderground v.1.15,2013-02-11 20:56:00,
2013-02-11 15:01:00,52.0,27.1,30.10,NW,307,1.0,3.0,38,0.00,,,0.00,Wunderground v.1.15,2013-02-11 21:01:00,
2013-02-11 15:06:00,52.2,27.3,30.10,NNW,330,1.0,3.0,38,0.00,,,0.00,Wunderground v.1.15,2013-02-11 21:06:00,
2013-02-11 15:11:00,52.1,27.2,30.10,NW,317,2.0,3.0,38,0.00,,,0.00,Wunderground v.1.15,2013-02-11 21:11:00,
2013-02-11 15:16:00,51.6,26.8,30.10,WNW,297,2.0,3.0,38,0.00,,,0.00,Wunderground v.1.15,2013-02-11 21:16:00,
2013-02-11 15:21:00,51.7,27.5,30.10,West,259,2.0,4.0,39,0.00,,,0.00,Wunderground v.1.15,2013-02-11 21:21:00,
2013-02-11 15:26:00,51.6,26.1,30.10,WNW,293,2.0,5.0,37,0.00,,,0.00,Wunderground v.1.15,2013-02-11 21:26:00,
2013-02-11 15:36:00,51.7,26.9,30.10,NW,311,2.0,3.0,38,0.00,,,0.00,Wunderground v.1.15,2013-02-11 21:36:00,
2013-02-11 15:41:00,51.8,26.3,30.10,West,277,2.0,3.0,37,0.00,,,0.00,Wunderground v.1.15,2013-02-11 21:41:00,
2013-02-11 15:46:00,51.3,26.5,30.10,WNW,285,2.0,3.0,38,0.00,,,0.00,Wunderground v.1.15,2013-02-11 21:46:00,
2013-02-11 15:51:00,51.1,26.3,30.10,NW,315,3.0,3.0,38,0.00,,,0.00,Wunderground v.1.15,2013-02-11 21:51:00,
2013-02-11 15:56:00,51.3,26.5,30.10,WNW,284,2.0,3.0,38,0.00,,,0.00,Wunderground v.1.15,2013-02-11 21:56:00,
2013-02-11 16:01:00,51.3,25.9,30.10,NW,309,2.0,2.0,37,0.00,,,0.00,Wunderground v.1.15,2013-02-11 22:01:00,
2013-02-11 16:06:00,51.2,25.8,30.10,WSW,243,2.0,2.0,37,0.00,,,0.00,Wunderground v.1.15,2013-02-11 22:06:00,
2013-02-11 16:11:00,51.1,26.3,30.10,West,259,1.0,1.0,38,0.00,,,0.00,Wunderground v.1.15,2013-02-11 22:11:00,
2013-02-11 16:16:00,51.1,27.0,30.09,WNW,282,1.0,1.0,39,0.00,,,0.00,Wunderground v.1.15,2013-02-11 22:16:00,
2013-02-11 16:21:00,51.0,26.9,30.09,West,278,0.0,3.0,39,0.00,,,0.00,Wunderground v.1.15,2013-02-11 22:21:00,
2013-02-11 16:26:00,50.6,26.5,30.09,NW,319,1.0,3.0,39,0.00,,,0.00,Wunderground v.1.15,2013-02-11 22:26:00,
2013-02-11 16:31:00,50.3,26.3,30.09,NNW,340,2.0,2.0,39,0.00,,,0.00,Wunderground v.1.15,2013-02-11 22:31:00,
2013-02-11 16:36:00,50.0,26.0,30.09,WSW,257,1.0,3.0,39,0.00,,,0.00,Wunderground v.1.15,2013-02-11 22:36:00,
2013-02-11 16:41:00,49.8,25.8,30.09,WNW,287,1.0,2.0,39,0.00,,,0.00,Wunderground v.1.15,2013-02-11 22:41:00,
2013-02-11 16:46:00,49.7,25.7,30.09,WNW,293,1.0,2.0,39,0.00,,,0.00,Wunderground v.1.15,2013-02-11 22:46:00,
2013-02-11 16:51:00,49.5,25.5,30.09,WSW,255,1.0,3.0,39,0.00,,,0.00,Wunderground v.1.15,2013-02-11 22:51:00,
2013-02-11 16:56:00,49.3,26.0,30.09,West,262,1.0,3.0,40,0.00,,,0.00,Wunderground v.1.15,2013-02-11 22:56:00,
2013-02-11 17:01:00,49.2,25.9,30.09,SW,233,1.0,1.0,40,0.00,,,0.00,Wunderground v.1.15,2013-02-11 23:01:00,
2013-02-11 17:11:00,48.8,26.1,30.09,ESE,112,1.0,1.0,41,0.00,,,0.00,Wunderground v.1.15,2013-02-11 23:11:00,
2013-02-11 17:16:00,48.6,25.3,30.09,WNW,297,1.0,1.0,40,0.00,,,0.00,Wunderground v.1.15,2013-02-11 23:16:00,
2013-02-11 17:21:00,48.4,25.2,30.09,WSW,239,1.0,1.0,40,0.00,,,0.00,Wunderground v.1.15,2013-02-11 23:21:00,
2013-02-11 17:26:00,48.3,25.7,30.09,WNW,293,1.0,1.0,41,0.00,,,0.00,Wunderground v.1.15,2013-02-11 23:26:00,
2013-02-11 17:31:00,48.0,26.0,30.10,NW,304,1.0,1.0,42,0.00,,,0.00,Wunderground v.1.15,2013-02-11 23:31:00,
2013-02-11 17:41:00,47.2,25.3,30.10,WNW,286,0.0,0.0,42,0.00,,,0.00,Wunderground v.1.15,2013-02-11 23:41:00,
2013-02-11 17:46:00,47.1,25.7,30.10,WNW,290,0.0,0.0,43,0.00,,,0.00,Wunderground v.1.15,2013-02-11 23:46:00,
2013-02-11 17:51:00,46.7,25.4,30.10,WNW,297,0.0,0.0,43,0.00,,,0.00,Wunderground v.1.15,2013-02-11 23:51:00,
2013-02-11 17:56:00,46.3,25.6,30.11,WNW,297,0.0,0.0,44,0.00,,,0.00,Wunderground v.1.15,2013-02-11 23:56:00,
2013-02-11 18:01:00,46.0,25.3,30.11,West,278,0.0,0.0,44,0.00,,,0.00,Wunderground v.1.15,2013-02-12 00:01:00,
2013-02-11 18:06:00,45.7,25.5,30.11,West,278,0.0,0.0,45,0.00,,,0.00,Wunderground v.1.15,2013-02-12 00:06:00,
2013-02-11 18:16:00,44.8,25.3,30.11,West,278,0.0,0.0,46,0.00,,,0.00,Wunderground v.1.15,2013-02-12 00:16:00,
2013-02-11 18:26:00,44.0,25.5,30.12,West,278,0.0,0.0,48,0.00,,,0.00,Wunderground v.1.15,2013-02-12 00:26:00,
2013-02-11 18:31:00,43.5,26.1,30.12,West,278,0.0,0.0,50,0.00,,,0.00,Wunderground v.1.15,2013-02-12 00:31:00,
2013-02-11 18:36:00,43.0,25.6,30.12,WSW,238,0.0,0.0,50,0.00,,,0.00,Wunderground v.1.15,2013-02-12 00:36:00,
2013-02-11 18:41:00,42.7,26.3,30.13,WSW,239,0.0,0.0,52,0.00,,,0.00,Wunderground v.1.15,2013-02-12 00:41:00,
2013-02-11 18:46:00,42.2,26.3,30.12,WSW,239,0.0,0.0,53,0.00,,,0.00,Wunderground v.1.15,2013-02-12 00:46:00,
2013-02-11 18:51:00,41.6,26.2,30.12,WSW,238,0.0,0.0,54,0.00,,,0.00,Wunderground v.1.15,2013-02-12 00:51:00,
2013-02-11 18:56:00,41.1,26.1,30.12,WSW,239,0.0,0.0,55,0.00,,,0.00,Wunderground v.1.15,2013-02-12 00:56:00,
2013-02-11 19:06:00,40.2,26.6,30.12,WSW,239,0.0,0.0,58,0.00,,,0.00,Wunderground v.1.15,2013-02-12 01:06:00,
2013-02-11 19:11:00,39.6,26.0,30.13,WSW,239,0.0,0.0,58,0.00,,,0.00,Wunderground v.1.15,2013-02-12 01:11:00,
2013-02-11 19:16:00,39.1,26.4,30.13,WSW,239,0.0,0.0,60,0.00,,,0.00,Wunderground v.1.15,2013-02-12 01:16:00,
2013-02-11 19:26:00,38.4,26.5,30.13,WSW,239,0.0,0.0,62,0.00,,,0.00,Wunderground v.1.15,2013-02-12 01:26:00,
2013-02-11 19:31:00,38.0,26.5,30.13,WSW,239,0.0,0.0,63,0.00,,,0.00,Wunderground v.1.15,2013-02-12 01:31:00,
2013-02-11 19:36:00,37.6,26.1,30.13,WSW,239,0.0,0.0,63,0.00,,,0.00,Wunderground v.1.15,2013-02-12 01:36:00,
2013-02-11 19:41:00,37.2,26.5,30.13,WSW,239,0.0,0.0,65,0.00,,,0.00,Wunderground v.1.15,2013-02-12 01:41:00,
2013-02-11 19:46:00,36.9,27.3,30.14,WSW,238,0.0,0.0,68,0.00,,,0.00,Wunderground v.1.15,2013-02-12 01:46:00,
2013-02-11 19:51:00,36.6,27.0,30.14,WSW,239,0.0,0.0,68,0.00,,,0.00,Wunderground v.1.15,2013-02-12 01:51:00,
2013-02-11 19:56:00,36.3,27.4,30.14,WSW,238,0.0,0.0,70,0.00,,,0.00,Wunderground v.1.15,2013-02-12 01:56:00,
2013-02-11 20:06:00,35.7,26.5,30.14,WSW,239,0.0,0.0,69,0.00,,,0.00,Wunderground v.1.15,2013-02-12 02:06:00,
2013-02-11 20:11:00,35.4,26.9,30.14,WSW,239,0.0,0.0,71,0.00,,,0.00,Wunderground v.1.15,2013-02-12 02:11:00,
2013-02-11 20:16:00,35.2,27.1,30.14,WSW,239,0.0,0.0,72,0.00,,,0.00,Wunderground v.1.15,2013-02-12 02:16:00,
2013-02-11 20:21:00,34.9,27.1,30.15,WSW,239,0.0,0.0,73,0.00,,,0.00,Wunderground v.1.15,2013-02-12 02:21:00,
2013-02-11 20:26:00,34.7,27.3,30.15,WSW,238,0.0,0.0,74,0.00,,,0.00,Wunderground v.1.15,2013-02-12 02:26:00,
2013-02-11 20:31:00,34.5,26.7,30.15,WSW,238,0.0,0.0,73,0.00,,,0.00,Wunderground v.1.15,2013-02-12 02:31:00,
2013-02-11 20:36:00,34.4,27.9,30.15,WSW,239,0.0,0.0,77,0.00,,,0.00,Wunderground v.1.15,2013-02-12 02:36:00,
2013-02-11 20:41:00,34.0,27.2,30.15,WSW,239,0.0,0.0,76,0.00,,,0.00,Wunderground v.1.15,2013-02-12 02:41:00,
2013-02-11 20:46:00,33.7,26.9,30.15,WSW,238,0.0,0.0,76,0.00,,,0.00,Wunderground v.1.15,2013-02-12 02:46:00,
2013-02-11 20:51:00,33.6,27.8,30.15,WSW,238,0.0,0.0,79,0.00,,,0.00,Wunderground v.1.15,2013-02-12 02:51:00,
2013-02-11 20:56:00,33.4,27.6,30.16,WSW,239,0.0,0.0,79,0.00,,,0.00,Wunderground v.1.15,2013-02-12 02:56:00,
2013-02-11 21:01:00,33.3,27.2,30.16,WSW,239,0.0,0.0,78,0.00,,,0.00,Wunderground v.1.15,2013-02-12 03:01:00,
2013-02-11 21:06:00,33.0,26.9,30.16,WSW,239,0.0,0.0,78,0.00,,,0.00,Wunderground v.1.15,2013-02-12 03:06:00,
2013-02-11 21:11:00,32.8,26.7,30.16,WSW,238,0.0,0.0,78,0.00,,,0.00,Wunderground v.1.15,2013-02-12 03:11:00,
2013-02-11 21:16:00,32.7,26.9,30.16,WSW,238,0.0,0.0,79,0.00,,,0.00,Wunderground v.1.15,2013-02-12 03:16:00,
2013-02-11 21:21:00,32.6,26.8,30.16,WSW,239,0.0,0.0,79,0.00,,,0.00,Wunderground v.1.15,2013-02-12 03:21:00,
2013-02-11 21:26:00,32.4,26.6,30.16,WSW,238,0.0,0.0,79,0.00,,,0.00,Wunderground v.1.15,2013-02-12 03:26:00,
2013-02-11 21:31:00,32.3,26.5,30.17,WSW,239,0.0,0.0,79,0.00,,,0.00,Wunderground v.1.15,2013-02-12 03:31:00,
2013-02-11 21:41:00,32.0,26.5,30.17,WSW,238,0.0,0.0,80,0.00,,,0.00,Wunderground v.1.15,2013-02-12 03:41:00,
2013-02-11 21:46:00,31.9,26.4,30.17,WSW,239,0.0,0.0,80,0.00,,,0.00,Wunderground v.1.15,2013-02-12 03:46:00,
2013-02-11 21:51:00,31.7,26.2,30.17,WSW,238,0.0,0.0,80,0.00,,,0.00,Wunderground v.1.15,2013-02-12 03:51:00,
2013-02-11 21:56:00,31.4,26.8,30.17,WSW,238,0.0,0.0,83,0.00,,,0.00,Wunderground v.1.15,2013-02-12 03:56:00,
2013-02-11 22:01:00,31.2,26.6,30.17,WSW,239,0.0,0.0,83,0.00,,,0.00,Wunderground v.1.15,2013-02-12 04:01:00,
2013-02-11 22:06:00,31.0,26.7,30.18,WSW,239,0.0,0.0,84,0.00,,,0.00,Wunderground v.1.15,2013-02-12 04:06:00,
2013-02-11 22:11:00,30.8,26.2,30.17,WSW,239,0.0,0.0,83,0.00,,,0.00,Wunderground v.1.15,2013-02-12 04:11:00,
2013-02-11 22:16:00,30.7,26.1,30.18,WSW,238,0.0,0.0,83,0.00,,,0.00,Wunderground v.1.15,2013-02-12 04:16:00,
2013-02-11 22:21:00,30.6,26.1,30.18,WSW,239,0.0,0.0,83,0.00,,,0.00,Wunderground v.1.15,2013-02-12 04:21:00,
2013-02-11 22:26:00,30.5,26.0,30.18,WSW,239,0.0,0.0,83,0.00,,,0.00,Wunderground v.1.15,2013-02-12 04:26:00,
2013-02-11 22:31:00,30.4,25.9,30.18,WSW,239,0.0,0.0,83,0.00,,,0.00,Wunderground v.1.15,2013-02-12 04:31:00,
2013-02-11 22:36:00,30.3,26.3,30.18,WSW,238,0.0,0.0,85,0.00,,,0.00,Wunderground v.1.15,2013-02-12 04:36:00,
2013-02-11 22:41:00,30.1,26.1,30.18,WSW,239,0.0,0.0,85,0.00,,,0.00,Wunderground v.1.15,2013-02-12 04:41:00,
2013-02-11 22:46:00,30.1,26.4,30.18,WSW,239,0.0,0.0,86,0.00,,,0.00,Wunderground v.1.15,2013-02-12 04:46:00,
2013-02-11 22:51:00,30.0,26.3,30.18,WSW,239,0.0,0.0,86,0.00,,,0.00,Wunderground v.1.15,2013-02-12 04:51:00,
2013-02-11 22:56:00,29.8,26.1,30.18,WSW,239,0.0,0.0,86,0.00,,,0.00,Wunderground v.1.15,2013-02-12 04:56:00,
2013-02-11 23:01:00,29.7,26.0,30.18,WSW,239,0.0,0.0,86,0.00,,,0.00,Wunderground v.1.15,2013-02-12 05:01:00,
2013-02-11 23:06:00,29.6,26.2,30.19,WSW,239,0.0,0.0,87,0.00,,,0.00,Wunderground v.1.15,2013-02-12 05:06:00,
2013-02-11 23:11:00,29.6,26.2,30.19,WSW,239,0.0,0.0,87,0.00,,,0.00,Wunderground v.1.15,2013-02-12 05:11:00,
2013-02-11 23:16:00,29.5,26.1,30.19,WSW,238,0.0,0.0,87,0.00,,,0.00,Wunderground v.1.15,2013-02-12 05:16:00,
2013-02-11 23:26:00,29.3,25.9,30.19,WSW,239,0.0,0.0,87,0.00,,,0.00,Wunderground v.1.15,2013-02-12 05:26:00,
2013-02-11 23:31:00,29.3,25.9,30.19,WSW,239,0.0,0.0,87,0.00,,,0.00,Wunderground v.1.15,2013-02-12 05:31:00,
2013-02-11 23:36:00,29.2,25.8,30.19,SW,236,0.0,0.0,87,0.00,,,0.00,Wunderground v.1.15,2013-02-12 05:36:00,
2013-02-11 23:41:00,29.0,25.1,30.19,SW,236,0.0,0.0,85,0.00,,,0.00,Wunderground v.1.15,2013-02-12 05:41:00,
2013-02-11 23:46:00,28.9,25.2,30.19,SW,236,0.0,0.0,86,0.00,,,0.00,Wunderground v.1.15,2013-02-12 05:46:00,
2013-02-11 23:51:00,28.8,25.4,30.19,SW,236,0.0,0.0,87,0.00,,,0.00,Wunderground v.1.15,2013-02-12 05:51:00,
2013-02-11 23:56:00,28.6,25.5,30.19,SW,236,0.0,0.0,88,0.00,,,0.00,Wunderground v.1.15,2013-02-12 05:56:00,